FW2316 Weather Reports


Display with metric or nautical units.
time (UTC)temp
F
wind
direction
speed
MPH
gust
MPH
rain 1hr
in
rain 24hr
in
rain mn
in
humidity
%
barometer
mb
20260901164525 58 246 0.0 0.0 0.00 0.00 0.00 91 1011.7
20260901164024 58 246 0.0 0.0 0.00 0.00 0.00 91 1011.8
20260901163524 58 246 0.0 0.0 0.00 0.00 0.00 92 1011.8
20260901163034 58 246 0.0 0.0 0.00 0.00 0.00 92 1011.8
20260901162525 57 246 0.0 0.0 0.00 0.00 0.00 92 1011.8
20260901161521 57 246 0.0 0.0 0.00 0.00 0.00 93 1011.9
20260901161022 57 246 0.0 0.0 0.00 0.00 0.00 93 1011.9
20260901160519 57 246 0.0 0.0 0.00 0.00 0.00 93 1011.9
20260901160020 57 246 0.0 1.0 0.00 0.00 0.00 93 1012.0
20260901155519 57 246 0.0 1.0 0.00 0.00 0.00 93 1012.0
20260901155021 57 246 0.0 2.0 0.00 0.00 0.00 93 1011.9
20260901154517 56 246 0.0 3.0 0.00 0.00 0.00 94 1012.1
20260901154018 56 246 1.0 3.0 0.00 0.00 0.00 94 1012.1
20260901153517 56 246 0.0 2.0 0.00 0.00 0.00 94 1012.1
20260901153017 56 246 0.0 3.0 0.00 0.00 0.00 94 1012.1
20260901152516 56 246 1.0 4.0 0.00 0.00 0.00 94 1012.2
20260901151517 56 247 1.0 5.0 0.00 0.00 0.00 94 1012.2
20260901151016 56 252 0.0 4.0 0.00 0.00 0.00 94 1012.0
20260901150515 56 260 1.0 3.0 0.00 0.00 0.00 94 1012.0
20260901150014 56 263 0.0 4.0 0.00 0.00 0.00 94 1012.0
20260901145513 56 263 1.0 4.0 0.00 0.00 0.00 95 1012.1
20260901145115 55 265 1.0 6.0 0.00 0.00 0.00 95 1012.0
20260901144511 55 271 0.0 0.0 0.00 0.00 0.00 95 1012.0
20260901144011 55 271 0.0 0.0 0.00 0.00 0.00 95 1011.8
20260901143510 54 271 0.0 0.0 0.00 0.00 0.00 95 1011.9
20260901143008 54 271 0.0 0.0 0.00 0.00 0.00 95 1011.8
20260901142508 54 271 0.0 0.0 0.00 0.00 0.00 96 1011.7
20260901141506 54 271 0.0 0.0 0.00 0.00 0.00 95 1011.5
20260901141007 53 271 0.0 0.0 0.00 0.00 0.00 95 1011.6
20260901140506 53 271 0.0 0.0 0.00 0.00 0.00 95 1011.5
20260901140008 53 271 0.0 1.0 0.00 0.00 0.00 95 1011.5
20260901135503 53 271 0.0 1.0 0.00 0.00 0.00 95 1011.5
20260901135002 53 271 0.0 1.0 0.00 0.00 0.00 95 1011.4
20260901134502 53 271 0.0 1.0 0.00 0.00 0.00 95 1011.4
20260901134101 53 271 0.0 1.0 0.00 0.00 0.00 95 1011.4
20260901133559 53 271 0.0 1.0 0.00 0.00 0.00 95 1011.3
20260901133109 53 271 0.0 1.0 0.00 0.00 0.00 94 1011.2
20260901132559 53 271 0.0 1.0 0.00 0.00 0.00 94 1011.1
20260901132100 53 271 0.0 1.0 0.00 0.00 0.00 94 1010.9
20260901131557 53 271 0.0 1.0 0.00 0.00 0.00 94 1010.9
20260901131059 54 271 0.0 2.0 0.00 0.00 0.00 94 1011.0
20260901130556 54 271 1.0 2.0 0.00 0.00 0.00 94 1011.0
20260901130056 54 271 0.0 1.0 0.00 0.00 0.00 94 1010.9
20260901125556 54 271 0.0 1.0 0.00 0.00 0.00 94 1011.0
20260901125055 54 271 0.0 0.0 0.00 0.00 0.00 94 1010.9
20260901124604 54 271 0.0 0.0 0.00 0.00 0.00 94 1010.9
20260901124053 54 271 0.0 0.0 0.00 0.00 0.00 94 1010.7
20260901123556 54 271 0.0 1.0 0.00 0.00 0.00 94 1010.8
20260901123053 55 271 0.0 1.0 0.00 0.00 0.00 94 1010.8
20260901122553 55 271 0.0 3.0 0.00 0.00 0.00 94 1010.8
20260901122152 55 271 1.0 3.0 0.00 0.00 0.00 95 1010.8
20260901121603 55 273 2.0 4.0 0.00 0.00 0.00 95 1010.7
20260901121052 55 275 2.0 4.0 0.00 0.00 0.00 95 1010.7
20260901120554 55 278 2.0 4.0 0.00 0.00 0.00 95 1010.7
20260901120053 55 282 2.0 4.0 0.00 0.00 0.00 95 1010.7
20260901115554 55 286 2.0 4.0 0.00 0.00 0.00 95 1010.6
20260901115051 54 286 2.0 4.0 0.00 0.00 0.00 95 1010.6
20260901114556 54 286 1.0 3.0 0.00 0.00 0.00 95 1010.7
20260901114049 54 286 1.0 2.0 0.00 0.00 0.00 94 1010.7
20260901113548 54 286 0.0 2.0 0.00 0.00 0.00 94 1010.7
20260901113056 55 286 0.0 0.0 0.00 0.00 0.00 94 1010.6
20260901112548 55 286 0.0 1.0 0.00 0.00 0.00 94 1010.5
20260901112047 55 286 1.0 2.0 0.00 0.00 0.00 94 1010.5
20260901111547 55 286 1.0 2.0 0.00 0.00 0.00 94 1010.5
20260901111046 55 286 1.0 2.0 0.00 0.00 0.00 94 1010.4
20260901110545 55 286 0.0 1.0 0.00 0.00 0.00 95 1010.3
20260901110046 55 286 0.0 1.0 0.00 0.00 0.00 94 1010.3
20260901105546 55 286 0.0 0.0 0.00 0.00 0.00 94 1010.4
20260901105046 55 286 0.0 0.0 0.00 0.00 0.00 94 1010.4
20260901104553 55 286 0.0 0.0 0.00 0.00 0.00 94 1010.4
20260901104045 55 286 0.0 0.0 0.00 0.00 0.00 94 1010.5
20260901103543 55 286 0.0 0.0 0.00 0.00 0.00 94 1010.3
20260901103043 55 286 0.0 0.0 0.00 0.00 0.00 94 1010.3
20260901102544 55 286 0.0 0.0 0.00 0.00 0.00 94 1010.4
20260901102145 55 286 0.0 1.0 0.00 0.00 0.00 93 1010.3
20260901101542 55 286 0.0 1.0 0.00 0.00 0.00 93 1010.3
20260901101042 55 286 0.0 1.0 0.00 0.00 0.00 93 1010.2
20260901100542 55 286 0.0 0.0 0.00 0.00 0.00 93 1010.2
20260901100049 55 286 0.0 0.0 0.00 0.00 0.00 93 1010.1
20260901095540 55 286 0.0 0.0 0.00 0.00 0.00 93 1010.1
20260901095040 56 286 0.0 0.0 0.00 0.00 0.00 93 1010.0
20260901094540 56 286 0.0 1.0 0.00 0.00 0.00 93 1010.0
20260901094042 56 286 0.0 2.0 0.00 0.00 0.00 93 1010.0
20260901093539 56 286 0.0 2.0 0.00 0.00 0.00 93 1010.0
20260901093039 56 286 0.0 2.0 0.00 0.00 0.00 93 1010.1
20260901092538 56 286 0.0 2.0 0.00 0.00 0.00 93 1010.1
20260901092139 56 286 0.0 2.0 0.00 0.00 0.00 93 1010.1
20260901091536 56 286 0.0 2.0 0.00 0.00 0.00 93 1010.1
20260901091036 56 286 0.0 2.0 0.00 0.00 0.00 93 1010.1
20260901090536 56 286 1.0 3.0 0.00 0.00 0.00 93 1010.1
20260901090036 56 286 1.0 2.0 0.00 0.00 0.00 92 1010.0
20260901085537 57 286 0.0 2.0 0.00 0.00 0.00 92 1010.0
20260901085035 57 286 0.0 1.0 0.00 0.00 0.00 92 1010.0
20260901084552 57 286 0.0 1.0 0.00 0.00 0.00 92 1009.9
20260901084035 57 286 0.0 1.0 0.00 0.00 0.00 92 1009.9
20260901083535 57 286 0.0 0.0 0.00 0.00 0.00 92 1009.9
20260901083037 57 286 0.0 0.0 0.00 0.00 0.00 91 1009.9
20260901082535 57 286 0.0 0.0 0.00 0.00 0.00 91 1009.8
20260901082035 57 286 0.0 0.0 0.00 0.00 0.00 92 1009.9
20260901081536 57 286 0.0 0.0 0.00 0.00 0.00 91 1009.8
20260901081037 57 286 0.0 0.0 0.00 0.00 0.00 91 1009.8
20260901080535 57 286 0.0 0.0 0.00 0.00 0.00 91 1009.8
20260901080037 57 286 0.0 0.0 0.00 0.00 0.00 91 1009.7
20260901075536 58 286 0.0 0.0 0.00 0.00 0.00 91 1009.7
20260901075039 58 286 0.0 0.0 0.00 0.00 0.00 91 1009.7
20260901074541 58 286 0.0 0.0 0.00 0.00 0.00 91 1009.7
20260901074037 58 286 0.0 0.0 0.00 0.00 0.00 91 1009.6
20260901073535 58 286 0.0 0.0 0.00 0.00 0.00 90 1009.6
20260901073035 58 286 0.0 0.0 0.00 0.00 0.00 90 1009.6
20260901072536 58 286 0.0 0.0 0.00 0.00 0.00 89 1009.6
20260901072137 59 286 0.0 0.0 0.00 0.00 0.00 90 1009.5
20260901071534 59 286 0.0 0.0 0.00 0.00 0.00 90 1009.6
20260901071034 59 286 0.0 0.0 0.00 0.00 0.00 90 1009.6
20260901070534 59 286 0.0 0.0 0.00 0.00 0.00 90 1009.5
20260901070036 59 286 0.0 0.0 0.00 0.00 0.00 89 1009.4
20260901065534 59 286 0.0 0.0 0.00 0.00 0.00 89 1009.5
20260901065033 59 286 0.0 0.0 0.00 0.00 0.00 89 1009.6
20260901064542 59 286 0.0 0.0 0.00 0.00 0.00 89 1009.7
20260901064034 59 286 0.0 0.0 0.00 0.00 0.00 88 1009.7
20260901063533 59 286 0.0 0.0 0.00 0.00 0.00 88 1009.6
20260901063034 59 286 0.0 0.0 0.00 0.00 0.00 87 1009.6
20260901062532 60 286 0.0 0.0 0.00 0.00 0.00 87 1009.7
20260901062133 60 286 0.0 0.0 0.00 0.00 0.00 86 1009.6
20260901061535 60 286 0.0 0.0 0.00 0.00 0.00 86 1009.7
20260901061034 60 286 0.0 0.0 0.00 0.00 0.00 86 1009.7
20260901060533 60 286 0.0 0.0 0.00 0.00 0.00 86 1009.9
20260901060034 60 286 0.0 0.0 0.00 0.00 0.00 86 1009.8
20260901055533 60 286 0.0 0.0 0.00 0.00 0.00 86 1009.9
20260901055033 60 286 0.0 0.0 0.00 0.00 0.00 85 1009.9
20260901054533 61 286 0.0 0.0 0.00 0.00 0.00 85 1009.9
20260901054035 61 286 0.0 0.0 0.00 0.00 0.00 84 1009.8
20260901053533 61 286 0.0 0.0 0.00 0.00 0.00 84 1009.9
20260901053039 61 286 0.0 0.0 0.00 0.00 0.00 83 1010.0
20260901052532 62 286 0.0 0.0 0.00 0.00 0.00 82 1010.0
20260901052134 62 286 0.0 0.0 0.00 0.00 0.00 82 1009.9
20260901051531 62 286 0.0 0.0 0.00 0.00 0.00 82 1010.0
20260901051035 62 286 0.0 0.0 0.00 0.00 0.00 82 1010.0
20260901050531 62 286 0.0 0.0 0.00 0.00 0.00 82 1010.0
20260901050031 62 286 0.0 2.0 0.00 0.00 0.00 81 1010.0
20260901045631 62 286 0.0 2.0 0.00 0.00 0.00 81 1009.9
20260901045030 62 286 0.0 0.0 0.00 0.00 0.00 80 1010.0
20260901044536 63 286 0.0 0.0 0.00 0.00 0.00 79 1010.0
20260901044030 63 286 0.0 0.0 0.00 0.00 0.00 78 1010.1
20260901043530 64 286 0.0 0.0 0.00 0.00 0.00 77 1010.2
20260901043030 64 286 0.0 1.0 0.00 0.00 0.00 76 1010.1
20260901042535 64 286 0.0 2.0 0.00 0.00 0.00 75 1010.1
20260901042029 64 217 0.0 0.0 0.00 0.00 0.00 74 1010.0
20260901041535 64 217 0.0 0.0 0.00 0.00 0.00 74 1010.0
20260901041030 64 217 0.0 0.0 0.00 0.00 0.00 73 1010.0
20260901040531 65 217 0.0 1.0 0.00 0.00 0.00 73 1010.0
20260901040030 65 217 0.0 1.0 0.00 0.00 0.00 73 1009.8
20260901035529 65 217 0.0 0.0 0.00 0.00 0.00 72 1009.9
20260901035129 65 217 0.0 0.0 0.00 0.00 0.00 72 1009.8
20260901034536 65 217 0.0 0.0 0.00 0.00 0.00 72 1009.6
20260901034029 65 217 0.0 0.0 0.00 0.00 0.00 72 1009.7
20260901033528 66 217 0.0 0.0 0.00 0.00 0.00 71 1009.5
20260901033030 66 217 0.0 0.0 0.00 0.00 0.00 70 1009.4
20260901032528 66 217 0.0 0.0 0.00 0.00 0.00 69 1009.3
20260901032128 68 286 0.0 0.0 0.00 0.00 0.00 69 1009.3
20260901031535 68 286 0.0 0.0 0.00 0.00 0.00 69 1009.3
20260901031030 68 286 0.0 2.0 0.00 0.00 0.00 68 1009.3
20260901030527 69 286 0.0 2.0 0.00 0.00 0.00 68 1009.3
20260901030027 69 286 0.0 2.0 0.00 0.00 0.00 67 1009.3
20260901025531 69 286 1.0 4.0 0.00 0.00 0.00 67 1009.4
20260901025029 69 286 1.0 4.0 0.00 0.00 0.00 66 1009.4
20260901024526 70 286 2.0 4.0 0.00 0.00 0.00 65 1009.4
20260901024027 70 286 1.0 5.0 0.00 0.00 0.00 65 1009.4
20260901023527 71 286 2.0 5.0 0.00 0.00 0.00 64 1009.4
20260901023026 71 286 3.0 5.0 0.00 0.00 0.00 63 1009.5
20260901022528 71 286 2.0 4.0 0.00 0.00 0.00 63 1009.5
20260901022126 72 286 3.0 4.0 0.00 0.00 0.00 62 1009.5
20260901021525 72 286 3.0 4.0 0.00 0.00 0.00 62 1009.5
20260901021024 72 286 1.0 4.0 0.00 0.00 0.00 62 1009.4
20260901020524 72 286 1.0 5.0 0.00 0.00 0.00 62 1009.4
20260901020024 73 286 3.0 7.0 0.00 0.00 0.00 61 1009.4
20260901015528 73 292 2.0 7.0 0.00 0.00 0.00 61 1009.4
20260901015022 74 278 2.0 4.0 0.00 0.00 0.00 60 1009.5
20260901014522 74 278 0.0 7.0 0.00 0.00 0.00 60 1009.4
20260901014022 74 273 4.0 8.0 0.00 0.00 0.00 59 1009.4
20260901013524 75 267 2.0 8.0 0.00 0.00 0.00 59 1009.3
20260901013027 75 249 3.0 9.0 0.00 0.00 0.00 59 1009.3
20260901012521 76 262 3.0 8.0 0.00 0.00 0.00 57 1009.3
20260901012121 76 280 3.0 8.0 0.00 0.00 0.00 56 1009.3
20260901011520 76 281 3.0 8.0 0.00 0.00 0.00 56 1009.3
20260901011119 76 289 4.0 8.0 0.00 0.00 0.00 56 1009.3
20260901010521 76 288 3.0 7.0 0.00 0.00 0.00 56 1009.2
20260901010026 77 286 3.0 7.0 0.00 0.00 0.00 57 1009.2
20260901005523 76 281 1.0 7.0 0.00 0.00 0.00 58 1009.2
20260901005020 76 282 2.0 8.0 0.00 0.00 0.00 56 1009.3
20260901004518 77 297 4.0 8.0 0.00 0.00 0.00 55 1009.3
20260901004017 77 288 3.0 8.0 0.00 0.00 0.00 55 1009.3
20260901003518 78 280 2.0 8.0 0.00 0.00 0.00 55 1009.3
20260901003029 77 292 4.0 8.0 0.00 0.00 0.00 56 1009.3
20260901002517 77 250 4.0 8.0 0.00 0.00 0.00 56 1009.3
20260901002116 76 286 4.0 8.0 0.00 0.00 0.00 56 1009.3
20260901001015 75 288 5.0 8.0 0.00 0.00 0.00 58 1009.4
20260901000514 76 243 4.0 8.0 0.00 0.00 0.00 57 1009.5
20260901000015 77 292 3.0 8.0 0.00 0.00 0.00 56 1009.5
20260831235513 77 311 2.0 9.0 0.00 0.00 0.00 56 1009.6
20260831235013 77 310 5.0 10.0 0.00 0.00 0.00 54 1009.8
20260831234513 78 320 3.0 9.0 0.00 0.00 0.00 54 1009.6
20260831234013 78 306 4.0 10.0 0.00 0.00 0.00 54 1009.8
20260831233512 78 290 4.0 10.0 0.00 0.00 0.00 54 1009.7
20260831233010 79 311 4.0 8.0 0.00 0.00 0.00 53 1009.8
20260831232511 77 284 2.0 10.0 0.00 0.00 0.00 55 1009.8
20260831232109 78 288 5.0 9.0 0.00 0.00 0.00 53 1009.9
20260831231510 78 298 4.0 9.0 0.00 0.00 0.00 55 1009.9
20260831231008 77 285 4.0 9.0 0.00 0.00 0.00 55 1010.0
20260831230507 77 286 4.0 9.0 0.00 0.00 0.00 55 1010.0
20260831230007 78 286 2.0 8.0 0.00 0.00 0.00 55 1010.0
20260831225507 77 258 4.0 8.0 0.00 0.00 0.00 55 1010.0
20260831225006 78 331 3.0 6.0 0.00 0.00 0.00 54 1010.1
20260831224506 78 272 3.0 9.0 0.00 0.00 0.00 54 1010.1
20260831224006 77 290 5.0 9.0 0.00 0.00 0.00 55 1010.2
20260831223506 77 301 3.0 10.0 0.00 0.00 0.00 55 1010.3
20260831223006 77 290 6.0 12.0 0.00 0.00 0.00 56 1010.3
20260831222504 77 252 3.0 12.0 0.00 0.00 0.00 55 1010.2
20260831222004 78 323 0.0 2.0 0.00 0.00 0.00 51 1010.5
20260831221515 78 59 1.0 2.0 0.00 0.00 0.00 51 1010.5
20260831221005 78 206 0.0 3.0 0.00 0.00 0.00 52 1010.4
20260831220504 78 338 0.0 3.0 0.00 0.00 0.00 52 1010.6
20260831220006 78 19 1.0 3.0 0.00 0.00 0.00 52 1010.6
20260831215502 77 15 0.0 2.0 0.00 0.00 0.00 53 1010.6
20260831215101 77 360 0.0 4.0 0.00 0.00 0.00 54 1010.6
20260831214600 77 196 1.0 4.0 0.00 0.00 0.00 53 1010.7
20260831214501 77 206 2.0 4.0 0.00 0.00 0.00 54 1010.7
20260831214059 76 347 0.0 5.0 0.00 0.00 0.00 54 1010.8
20260831213558 76 340 1.0 5.0 0.00 0.00 0.00 54 1010.9
20260831213058 76 287 0.0 3.0 0.00 0.00 0.00 54 1010.9
20260831212601 77 74 1.0 4.0 0.00 0.00 0.00 53 1011.0
20260831212059 75 241 2.0 8.0 0.00 0.00 0.00 57 1011.0
20260831211056 76 294 0.0 5.0 0.00 0.00 0.00 56 1011.1
20260831210554 76 294 2.0 8.0 0.00 0.00 0.00 56 1011.3
20260831210055 76 299 3.0 8.0 0.00 0.00 0.00 56 1011.4
20260831205557 74 274 1.0 9.0 0.00 0.00 0.00 58 1011.4
20260831205054 76 300 3.0 9.0 0.00 0.00 0.00 55 1011.5
20260831204553 75 289 3.0 8.0 0.00 0.00 0.00 57 1011.5
20260831204053 74 273 2.0 7.0 0.00 0.00 0.00 59 1011.5
20260831203552 75 11 0.0 8.0 0.00 0.00 0.00 57 1011.5
20260831203056 75 343 2.0 9.0 0.00 0.00 0.00 57 1011.7
20260831202549 75 290 3.0 9.0 0.00 0.00 0.00 57 1011.9
20260831202048 75 311 4.0 8.0 0.00 0.00 0.00 57 1011.9
20260831201047 73 298 1.0 8.0 0.00 0.00 0.00 59 1012.0
20260831200547 74 297 2.0 8.0 0.00 0.00 0.00 57 1012.1
20260831200049 72 292 0.0 4.0 0.00 0.00 0.00 60 1012.2
20260831195544 72 292 1.0 7.0 0.00 0.00 0.00 60 1012.2
20260831195044 72 294 2.0 9.0 0.00 0.00 0.00 60 1012.3
20260831194605 72 290 5.0 9.0 0.00 0.00 0.00 60 1012.3
20260831194043 71 315 1.0 8.0 0.00 0.00 0.00 60 1012.3
20260831193541 72 312 5.0 8.0 0.00 0.00 0.00 60 1012.4
20260831193045 71 316 1.0 6.0 0.00 0.00 0.00 61 1012.5
20260831192541 71 316 3.0 8.0 0.00 0.00 0.00 61 1012.6
20260831192039 71 316 2.0 8.0 0.00 0.00 0.00 62 1012.7
20260831191042 72 305 4.0 8.0 0.00 0.00 0.00 61 1012.8
20260831190541 69 316 1.0 6.0 0.00 0.00 0.00 63 1012.8
20260831190104 69 311 0.0 8.0 0.00 0.00 0.00 63 1013.0
20260831185538 70 311 1.0 8.0 0.00 0.00 0.00 62 1013.1
20260831185036 70 313 2.0 6.0 0.00 0.00 0.00 62 1013.1
20260831184534 69 320 2.0 6.0 0.00 0.00 0.00 63 1013.3
20260831184035 69 318 4.0 6.0 0.00 0.00 0.00 62 1013.3
20260831183533 68 311 3.0 6.0 0.00 0.00 0.00 64 1013.3
20260831183032 69 298 3.0 8.0 0.00 0.00 0.00 63 1013.4
20260831182533 68 309 4.0 8.0 0.00 0.00 0.00 65 1013.5
20260831182030 68 294 2.0 8.0 0.00 0.00 0.00 66 1013.5
20260831181029 68 297 2.0 8.0 0.00 0.00 0.00 66 1013.5
20260831180528 68 325 3.0 6.0 0.00 0.00 0.00 65 1013.5
20260831180027 67 335 2.0 5.0 0.00 0.00 0.00 66 1013.5
20260831175526 66 334 2.0 5.0 0.00 0.00 0.00 67 1013.5
20260831175026 66 334 1.0 9.0 0.00 0.00 0.00 67 1013.6
20260831174526 67 336 3.0 9.0 0.00 0.00 0.00 65 1013.7
20260831174024 66 303 2.0 5.0 0.00 0.00 0.00 69 1013.7
20260831173524 66 303 1.0 6.0 0.00 0.00 0.00 69 1013.7
20260831173024 65 302 2.0 6.0 0.00 0.00 0.00 69 1013.7
20260831172521 64 300 2.0 5.0 0.00 0.00 0.00 71 1013.8
20260831172019 63 300 2.0 6.0 0.00 0.00 0.00 72 1013.7
20260831171018 63 313 2.0 5.0 0.00 0.00 0.00 75 1013.7
20260831170517 62 316 1.0 5.0 0.00 0.00 0.00 76 1013.8
20260831170016 61 319 2.0 5.0 0.00 0.00 0.00 76 1013.8
20260831165514 61 325 2.0 4.0 0.00 0.00 0.00 77 1013.9